Flag for Canada Weather past 2 weeks in Inuvik, Northwest Territories, Canada

Now
3 °F

Light snow. More clouds than sun.


Feels Like: -9 °F
Forecast: -11 / 5 °F
Wind: 7 mph from West

Location: Inuvik

Current Time: Mar 6, 2015 at 1:53:51 PM

Latest Report: Mar 6, 2015 at 1:00 PM


Visibility: 10 mi

Pressure: 29.97 "Hg

Humidity: 72%

Dew point: -4 °F

Location of InuvikLocation

Historic Weather in Inuvik — Graph

°F

Inuvik temperature yesterday

Maximum temperature yesterday: 9 °F (at 12:00 AM)
Minimum temperature yesterday: -11 °F (at 9:00 PM)
Average temperature yesterday: -1 °F

Past Weeks' High & Low Weather Summary

 TemperatureHumidityPressure
High32 °F (Feb 27, 2:00 PM)93% (Feb 20, 12:00 PM)30.75 "Hg (Feb 20, 12:00 PM)
Low-15 °F (Mar 2, 5:00 AM)40% (Mar 3, 3:00 PM)29.67 "Hg (Mar 4, 1:00 AM)
Average9 °F73%30.17 "Hg
* Reported Feb 19 12:00 Noon — Mar 6 12:00 Noon, Inuvik, Weather by CustomWeather, © 2015

Note: Actual official high and low records may vary slightly from our data, if they occured in-between our weather recording intervals... More about our weather records

Advertising

Inuvik weather history for previous 24 hours

 ConditionsComfort  
Time TempWeatherWind HumidityBarometerVisibility
12:00 PM
Fri, Mar 6
3 °FLight snow. Partly sunny.3 mph72%29.94 "Hg10 mi
11:00 AM1 °FMore clouds than sun.6 mph78%29.93 "Hg15 mi
10:00 AM1 °FMostly cloudy.3 mph71%29.92 "Hg15 mi
9:00 AM0 °FOvercast.3 mph78%29.91 "Hg15 mi
8:00 AM0 °FLight snow. Overcast.10 mph71%29.91 "Hg15 mi
7:00 AM0 °FLight snow. Overcast.10 mph78%29.93 "Hg15 mi
6:00 AM-2 °FLight snow. Overcast.12 mph77%29.96 "Hg15 mi
5:00 AM-2 °FLight snow. Overcast.10 mph71%29.98 "Hg15 mi
4:00 AM-4 °FLight snow. Overcast.9 mph71%29.99 "Hg15 mi
3:00 AM-6 °FMostly cloudy.7 mph70%30.02 "Hg15 mi
2:00 AM-6 °FMostly cloudy.6 mph70%30.04 "Hg15 mi
1:00 AM-8 °FMostly cloudy.7 mph70%30.05 "Hg15 mi
12:00 AM-9 °FMostly cloudy.7 mph77%30.07 "Hg15 mi
11:00 PM
Thu, Mar 5
-9 °FMostly cloudy.5 mph77%30.07 "Hg15 mi
10:00 PM-11 °FPassing clouds.5 mph76%30.08 "Hg15 mi
9:00 PM-11 °FPassing clouds.5 mph76%30.07 "Hg15 mi
8:00 PM-9 °FPassing clouds.8 mph77%30.08 "Hg15 mi
7:00 PM-8 °FPassing clouds.2 mph77%30.07 "Hg15 mi
6:00 PM-4 °FScattered clouds.6 mph71%30.07 "Hg15 mi
5:00 PM-2 °FScattered clouds.8 mph65%30.06 "Hg15 mi
4:00 PM-2 °FSunny.9 mph65%30.05 "Hg15 mi
3:00 PM0 °FPassing clouds.7 mph60%30.04 "Hg15 mi
2:00 PM0 °FPassing clouds.7 mph60%30.03 "Hg15 mi
1:00 PM0 °FPassing clouds.8 mph65%30.01 "Hg15 mi
Weather by CustomWeather, © 2015

See weather overviewHow to use our weather pages